When you browse on this site, cookies collect data to enhance your experience and personalize the content and advertising you see.
Visit our Privacy Policy to learn more. By continuing to use the site, you agree to this use of cookies and data.
  • en France
  • Liste des pays
  • À 7 jours
  • Température de l'eau
  • Carte météo
  • Widgets météo
  • user-avatar
    Se connecter

    Météo par heure à El Quouseir

    Ce jour, 21 Novembre, Jeudi

    Heure Température Précipitation Vent Pression Humidité
    00:00 +17°C° 0 mm 6 m/s 760 mmHg 56%
    01:00 +17°C° 0 mm 6 m/s 760 mmHg 55%
    02:00 +17°C° 0 mm 6 m/s 760 mmHg 55%
    03:00 +17°C° 0 mm 6 m/s 760 mmHg 57%
    04:00 +17°C° 0 mm 6 m/s 760 mmHg 60%
    05:00 +17°C° 0 mm 6 m/s 760 mmHg 62%
    06:00 +20°C° 0 mm 6 m/s 760 mmHg 57%
    07:00 +21°C° 0 mm 6 m/s 760 mmHg 51%
    08:00 +23°C° 0 mm 6 m/s 761 mmHg 46%
    09:00 +25°C° 0 mm 5 m/s 761 mmHg 43%
    10:00 +26°C° 0 mm 5 m/s 761 mmHg 40%
    11:00 +27°C° 0 mm 5 m/s 761 mmHg 37%
    12:00 +27°C° 0 mm 5 m/s 760 mmHg 37%
    13:00 +27°C° 0 mm 4 m/s 759 mmHg 37%
    14:00 +27°C° 0 mm 4 m/s 759 mmHg 37%
    15:00 +25°C° 0 mm 3 m/s 759 mmHg 43%
    16:00 +24°C° 0 mm 3 m/s 759 mmHg 49%
    17:00 +21°C° 0 mm 2 m/s 759 mmHg 55%
    18:00 +21°C° 0 mm 1 m/s 759 mmHg 59%
    19:00 +20°C° 0 mm 1 m/s 759 mmHg 63%
    20:00 +17°C° 0 mm 0 m/s 759 mmHg 67%
    21:00 +19°C° 0 mm 1 m/s 760 mmHg 68%
    22:00 +18°C° 0 mm 2 m/s 760 mmHg 69%
    23:00 +18°C° 0 mm 2 m/s 760 mmHg 71%

    Demain, 22 Novembre, Vendredi

    Heure Température Précipitation Vent Pression Humidité
    00:00 +18°C° 0 mm 2 m/s 759 mmHg 68%
    01:00 +18°C° 0 mm 2 m/s 759 mmHg 66%
    02:00 +18°C° 0 mm 2 m/s 759 mmHg 64%
    03:00 +17°C° 0 mm 2 m/s 759 mmHg 65%
    04:00 +17°C° 0 mm 2 m/s 759 mmHg 65%
    05:00 +17°C° 0 mm 2 m/s 759 mmHg 66%
    06:00 +19°C° 0 mm 2 m/s 759 mmHg 56%
    07:00 +21°C° 0 mm 2 m/s 760 mmHg 46%
    08:00 +25°C° 0 mm 2 m/s 760 mmHg 36%
    09:00 +26°C° 0 mm 2 m/s 760 mmHg 33%
    10:00 +27°C° 0 mm 2 m/s 760 mmHg 31%
    11:00 +29°C° 0 mm 2 m/s 760 mmHg 28%
    12:00 +29°C° 0 mm 2 m/s 759 mmHg 31%
    13:00 +29°C° 0 mm 3 m/s 758 mmHg 34%
    14:00 +29°C° 0 mm 3 m/s 758 mmHg 36%
    15:00 +27°C° 0 mm 3 m/s 758 mmHg 43%
    16:00 +25°C° 0 mm 2 m/s 758 mmHg 50%
    17:00 +23°C° 0 mm 1 m/s 758 mmHg 56%
    18:00 +21°C° 0 mm 2 m/s 758 mmHg 60%
    19:00 +20°C° 0 mm 3 m/s 759 mmHg 63%
    20:00 +19°C° 0 mm 4 m/s 759 mmHg 67%
    21:00 +19°C° 0 mm 5 m/s 759 mmHg 64%
    22:00 +18°C° 0 mm 7 m/s 759 mmHg 61%
    23:00 +18°C° 0 mm 8 m/s 760 mmHg 57%

    Après-demain, 23 Novembre, Samedi

    Heure Température Précipitation Vent Pression Humidité
    00:00 +18°C° 0 mm 8 m/s 759 mmHg 55%
    01:00 +17°C° 0 mm 9 m/s 759 mmHg 52%
    02:00 +17°C° 0 mm 9 m/s 759 mmHg 50%
    03:00 +17°C° 0 mm 9 m/s 759 mmHg 47%
    04:00 +16°C° 0 mm 9 m/s 759 mmHg 45%
    05:00 +16°C° 0 mm 8 m/s 759 mmHg 42%
    06:00 +18°C° 0 mm 8 m/s 759 mmHg 36%
    07:00 +21°C° 0 mm 8 m/s 760 mmHg 31%
    08:00 +23°C° 0 mm 8 m/s 760 mmHg 25%
    09:00 +24°C° 0 mm 8 m/s 760 mmHg 23%
    10:00 +27°C° 0 mm 8 m/s 760 mmHg 21%
    11:00 +29°C° 0 mm 8 m/s 760 mmHg 18%
    12:00 +29°C° 0 mm 8 m/s 759 mmHg 21%
    13:00 +29°C° 0 mm 8 m/s 758 mmHg 24%
    14:00 +29°C° 0 mm 8 m/s 758 mmHg 27%
    15:00 +27°C° 0 mm 8 m/s 758 mmHg 31%
    16:00 +24°C° 0 mm 8 m/s 758 mmHg 35%
    17:00 +23°C° 0 mm 8 m/s 758 mmHg 39%
    18:00 +22°C° 0 mm 8 m/s 758 mmHg 38%
    19:00 +21°C° 0 mm 8 m/s 759 mmHg 37%
    20:00 +20°C° 0 mm 8 m/s 759 mmHg 36%
    21:00 +18°C° 0 mm 8 m/s 759 mmHg 37%
    22:00 +17°C° 0 mm 8 m/s 759 mmHg 38%
    23:00 +16°C° 0 mm 8 m/s 759 mmHg 38%

    24 Novembre, Dimanche

    Heure Température Précipitation Vent Pression Humidité
    00:00 +16°C° 0 mm 8 m/s 759 mmHg 38%
    01:00 +16°C° 0 mm 8 m/s 759 mmHg 38%
    02:00 +15°C° 0 mm 8 m/s 759 mmHg 38%
    03:00 +15°C° 0 mm 8 m/s 759 mmHg 38%
    04:00 +15°C° 0 mm 8 m/s 759 mmHg 38%
    05:00 +15°C° 0 mm 8 m/s 759 mmHg 38%
    06:00 +17°C° 0 mm 8 m/s 759 mmHg 33%
    07:00 +20°C° 0 mm 7 m/s 759 mmHg 28%
    08:00 +23°C° 0 mm 7 m/s 760 mmHg 23%
    09:00 +24°C° 0 mm 7 m/s 760 mmHg 21%
    10:00 +27°C° 0 mm 6 m/s 759 mmHg 19%
    11:00 +28°C° 0 mm 6 m/s 759 mmHg 18%
    12:00 +28°C° 0 mm 6 m/s 759 mmHg 21%
    13:00 +28°C° 0 mm 6 m/s 758 mmHg 24%
    14:00 +29°C° 0 mm 6 m/s 758 mmHg 27%
    15:00 +27°C° 0 mm 6 m/s 758 mmHg 37%
    16:00 +23°C° 0 mm 5 m/s 758 mmHg 47%
    17:00 +21°C° 0 mm 5 m/s 758 mmHg 56%
    18:00 +21°C° 0 mm 5 m/s 758 mmHg 59%
    19:00 +20°C° 0 mm 6 m/s 759 mmHg 63%
    20:00 +19°C° 0 mm 6 m/s 759 mmHg 66%
    21:00 +19°C° 0 mm 6 m/s 759 mmHg 64%
    22:00 +17°C° 0 mm 6 m/s 759 mmHg 62%
    23:00 +17°C° 0 mm 6 m/s 759 mmHg 60%

    25 Novembre, Lundi

    Heure Température Précipitation Vent Pression Humidité
    00:00 +16°C° 0 mm 5 m/s 759 mmHg 60%
    01:00 +16°C° 0 mm 5 m/s 759 mmHg 59%
    02:00 +15°C° 0 mm 4 m/s 758 mmHg 59%
    03:00 +15°C° 0 mm 4 m/s 758 mmHg 58%
    04:00 +15°C° 0 mm 4 m/s 759 mmHg 57%
    05:00 +16°C° 0 mm 3 m/s 759 mmHg 56%
    06:00 +19°C° 0 mm 3 m/s 759 mmHg 47%
    07:00 +21°C° 0 mm 2 m/s 760 mmHg 38%
    08:00 +25°C° 0 mm 2 m/s 760 mmHg 29%
    09:00 +26°C° 0 mm 2 m/s 760 mmHg 26%
    10:00 +28°C° 0 mm 2 m/s 760 mmHg 23%
    11:00 +30°C° 0 mm 1 m/s 759 mmHg 20%
    12:00 +30°C° 0 mm 2 m/s 759 mmHg 21%
    13:00 +30°C° 0 mm 2 m/s 759 mmHg 23%
    14:00 +30°C° 0 mm 2 m/s 758 mmHg 25%
    15:00 +28°C° 0 mm 2 m/s 758 mmHg 33%
    16:00 +25°C° 0 mm 2 m/s 758 mmHg 40%
    17:00 +23°C° 0 mm 2 m/s 758 mmHg 48%
    18:00 +23°C° 0 mm 2 m/s 759 mmHg 48%
    19:00 +21°C° 0 mm 2 m/s 759 mmHg 48%
    20:00 +21°C° 0 mm 3 m/s 759 mmHg 48%
    21:00 +21°C° 0 mm 3 m/s 759 mmHg 46%
    22:00 +21°C° 0 mm 4 m/s 759 mmHg 43%
    23:00 +21°C° 0 mm 4 m/s 759 mmHg 40%

    26 Novembre, Mardi

    Heure Température Précipitation Vent Pression Humidité
    00:00 +21°C° 0 mm 4 m/s 759 mmHg 39%
    01:00 +21°C° 0 mm 4 m/s 759 mmHg 38%
    02:00 +20°C° 0 mm 4 m/s 758 mmHg 36%
    03:00 +21°C° 0 mm 4 m/s 758 mmHg 36%
    04:00 +21°C° 0 mm 5 m/s 758 mmHg 35%
    05:00 +21°C° 0 mm 5 m/s 758 mmHg 34%
    06:00 +23°C° 0 mm 5 m/s 759 mmHg 30%
    07:00 +27°C° 0 mm 4 m/s 759 mmHg 25%
    08:00 +29°C° 0 mm 4 m/s 759 mmHg 20%
    09:00 +32°C° 0 mm 5 m/s 759 mmHg 18%
    10:00 +34°C° 0 mm 5 m/s 759 mmHg 17%
    11:00 +36°C° 0 mm 6 m/s 758 mmHg 15%
    12:00 +36°C° 0 mm 7 m/s 758 mmHg 17%
    13:00 +36°C° 0 mm 7 m/s 757 mmHg 18%
    14:00 +37°C° 0 mm 8 m/s 757 mmHg 19%
    15:00 +34°C° 0 mm 7 m/s 757 mmHg 24%
    16:00 +30°C° 0 mm 7 m/s 757 mmHg 29%
    17:00 +27°C° 0 mm 6 m/s 757 mmHg 33%
    18:00 +27°C° 0 mm 6 m/s 757 mmHg 32%
    19:00 +26°C° 0 mm 5 m/s 758 mmHg 31%
    20:00 +25°C° 0 mm 5 m/s 758 mmHg 30%
    21:00 +25°C° 0 mm 4 m/s 758 mmHg 30%
    22:00 +25°C° 0 mm 4 m/s 758 mmHg 29%
    23:00 +24°C° 0 mm 3 m/s 758 mmHg 28%
    Voir plus